User: anonymous   Login
Location: Albany
(35.0000°S, 118.0000°E)
Time: 11:07:41
(UTC-04:00)
Language:

Cosmos 1758 Rocket - Orbit

View from above orbital plane
View from above orbital plane
View from above satellite
View from above satellite

Ground track
Ground track

The orbit data is extracted from the following two-line orbital elements,

1 16792U 86046B   17264.72814397  .00000093  00000-0  84083-5 0  9990
2 16792  82.4805 111.5797 0023681 338.8041  65.7992 14.83146523689190
Epoch (UTC): 21 September 2017 17:28:31
Eccentricity: 0.0023681
inclination: 82.4805°
perigee height: 603 km
apogee height: 636 km
right ascension of ascending node: 111.5797°
argument of perigee: 338.8041°
revolutions per day: 14.83146523
mean anomaly at epoch: 65.7992°
orbit number at epoch: 68919

The dashed part of the orbit path shows where the satellite is in the earth's shadow,  

DLR